Lagos, Nigeria

1:36 PM WAT on November 18, 2017 (GMT +0100)
Lagos

Weather History for DNMM - April, 2013

Change the Weather History Date:

Tuesday, April 16, 2013

  Actual Average Record
Temperature  
Mean Temperature 83 °F -  
Max Temperature 91 °F 89 °F - ()
Min Temperature 75 °F 74 °F - ()
Cooling Degree Days 18    
Growing Degree Days 33 (Base 50)    
Moisture  
Dew Point 76 °F    
Average Humidity 82    
Maximum Humidity 97    
Minimum Humidity 58    
Precipitation  
Precipitation 0.00 in 0.23 in - ()
Sea Level Pressure  
Sea Level Pressure 29.86 in    
Wind  
Wind Speed 5 mph ()    
Max Wind Speed 21 mph    
Max Gust Speed -    
Visibility 5.3 miles    
Events      
T = Trace of Precipitation, MM = Missing Value Source: Averaged Metar Reports

Daily Weather History Graph

Daily Weather History Graph

Search for Another Location

Airport or City:

Trip Planner

Search our weather history database for the weather conditions in past years. The results will help you decide how hot, cold, wet, or windy it might be!

Date:

Astronomy

Apr. 16, 2013 Rise Set
Actual Time 6:38 AM WAT 6:54 PM WAT
Civil Twilight 6:17 AM WAT 7:15 PM WAT
Nautical Twilight 5:52 AM WAT 7:40 PM WAT
Astronomical Twilight 5:27 AM WAT 8:05 PM WAT
Moon 11:13 AM WAT (4/16) 11:55 PM WAT (4/16)
Length of Visible Light 12h 58m
Length of Day
12h 16m
Waxing Crescent, 31% of the Moon is Illuminated
Apr 16
Waxing Crescent
Apr 18
First Quarter
Apr 25
Full
May 2
Last Quarter
May 10
New

Hourly Weather History & Observations

Time (WAT) Temp. Heat Index Dew Point Humidity Pressure Visibility Wind Dir Wind Speed Gust Speed Precip Events Conditions
12:00 AM 77.0 °F - 75.2 °F 94% 29.89 in 4.3 mi Calm Calm - N/A   Partly Cloudy
12:30 AM 77.0 °F - 75.2 °F 94% 29.89 in 4.3 mi Calm Calm - N/A   Partly Cloudy
1:00 AM 78 °F - 76 °F 91% 29.92 in 4 mi Calm Calm - -   Haze
1:00 AM 77.0 °F - 75.2 °F 94% 29.89 in 4.3 mi Calm Calm - N/A   Partly Cloudy
2:00 AM 77.0 °F - 75.2 °F 94% 29.86 in 4.3 mi Calm Calm - N/A   Partly Cloudy
2:30 AM 77.0 °F - 75.2 °F 94% 29.86 in 4.3 mi Calm Calm - N/A   Partly Cloudy
3:00 AM 77.0 °F - 75.2 °F 94% 29.86 in 4.3 mi West 2.3 mph - N/A   Partly Cloudy
3:30 AM 77.0 °F - 75.2 °F 94% 29.83 in 4.3 mi WNW 2.3 mph - N/A   Partly Cloudy
4:00 AM 77 °F - 75 °F 92% 29.90 in 4 mi Calm Calm - -   Haze
4:00 AM 75.2 °F - 73.4 °F 94% 29.83 in 4.3 mi Calm Calm - N/A   Partly Cloudy
4:30 AM 75.2 °F - 73.4 °F 94% 29.83 in 4.3 mi Calm Calm - N/A   Partly Cloudy
5:00 AM 75.2 °F - 73.4 °F 94% 29.83 in 4.3 mi Calm Calm - N/A   Partly Cloudy
5:30 AM 75.2 °F - 71.6 °F 89% 29.83 in 4.3 mi Calm Calm - N/A   Partly Cloudy
6:00 AM 75.2 °F - 71.6 °F 89% 29.86 in 3.7 mi Calm Calm - N/A   Partly Cloudy
6:30 AM 75.2 °F - 73.4 °F 94% 29.86 in 2.2 mi Calm Calm - N/A   Partly Cloudy
7:00 AM 76 °F - 75 °F 97% 29.88 in 2 mi Calm Calm - -   Mist
7:00 AM 75.2 °F - 73.4 °F 94% 29.86 in - Calm Calm - N/A   Scattered Clouds
7:30 AM 75.2 °F - 73.4 °F 94% 29.86 in - Calm Calm - N/A   Scattered Clouds
8:00 AM 78.8 °F - 77.0 °F 94% 29.86 in - Calm Calm - N/A   Haze
8:30 AM 78.8 °F - 77.0 °F 94% 29.86 in 2.8 mi Calm Calm - N/A   Haze
9:00 AM 84.2 °F 96.1 °F 78.8 °F 84% 29.89 in 2.8 mi Calm Calm - N/A   Haze
9:30 AM 84.2 °F 96.1 °F 78.8 °F 84% 29.89 in 5.0 mi West 5.8 mph - N/A   Mostly Cloudy
10:00 AM 87 °F - 79 °F 71% 29.92 in 6 mi SSW 11.5 mph - -   Mostly Cloudy
10:00 AM 86.0 °F 99.3 °F 78.8 °F 79% 29.89 in 6.2 mi SSW 11.5 mph - N/A   Mostly Cloudy
10:30 AM 86.0 °F 99.3 °F 78.8 °F 79% 29.89 in 6.2 mi WSW 13.8 mph - N/A   Mostly Cloudy
11:00 AM 89.6 °F 104.7 °F 78.8 °F 70% 29.89 in 6.2 mi WSW 13.8 mph - N/A   Mostly Cloudy
11:30 AM 89.6 °F 104.7 °F 78.8 °F 70% 29.89 in 6.2 mi West 17.3 mph - N/A   Mostly Cloudy
12:00 PM 87.8 °F 99.7 °F 77.0 °F 70% 29.86 in 6.2 mi West 15.0 mph - N/A   Mostly Cloudy
12:30 PM 87.8 °F 99.7 °F 77.0 °F 70% 29.86 in 6.2 mi West 11.5 mph - N/A   Mostly Cloudy
1:00 PM 89 °F - 77 °F 61% 29.89 in 6 mi SSW 13.8 mph - -   Mostly Cloudy
1:00 PM 89.6 °F 102.2 °F 77.0 °F 66% 29.86 in 6.2 mi SSW 13.8 mph - N/A   Mostly Cloudy
1:30 PM 91.4 °F 105.1 °F 77.0 °F 63% 29.83 in 6.2 mi WSW 20.7 mph - N/A   Mostly Cloudy
2:00 PM 91.4 °F 107.2 °F 78.8 °F 66% 29.83 in 6.2 mi West 17.3 mph - N/A   Mostly Cloudy
2:30 PM 91.4 °F 105.1 °F 77.0 °F 63% 29.83 in 6.2 mi WSW 19.6 mph - N/A   Mostly Cloudy
3:00 PM 89.6 °F 102.2 °F 77.0 °F 66% 29.80 in 6.2 mi West 15.0 mph - N/A   Mostly Cloudy
3:30 PM 89.6 °F 102.2 °F 77.0 °F 66% 29.80 in 6.2 mi West 13.8 mph - N/A   Mostly Cloudy
4:00 PM 90 °F - 77 °F 58% 29.85 in 6 mi West 13.8 mph - -   Mostly Cloudy
4:00 PM 89.6 °F 104.7 °F 78.8 °F 70% 29.80 in 6.2 mi West 13.8 mph - N/A   Mostly Cloudy
5:00 PM 89.6 °F 104.7 °F 78.8 °F 70% 29.80 in - West 10.4 mph - N/A   Mostly Cloudy
5:30 PM 87.8 °F 99.7 °F 77.0 °F 70% 29.80 in 6.2 mi SW 16.1 mph - N/A   Mostly Cloudy
6:00 PM 86.0 °F 96.9 °F 77.0 °F 74% 29.80 in 6.2 mi WSW 11.5 mph - N/A   Scattered Clouds
6:30 PM 84.2 °F 94.1 °F 77.0 °F 79% 29.80 in 6.2 mi WSW 13.8 mph - N/A   Scattered Clouds
7:00 PM 84 °F - 77 °F 74% 29.86 in 6 mi WSW 17.3 mph - -   Partly Cloudy
7:00 PM 84.2 °F 94.1 °F 77.0 °F 79% 29.83 in 6.2 mi WSW 17.3 mph - N/A   Scattered Clouds
7:30 PM 82.4 °F 90.9 °F 77.0 °F 84% 29.83 in 6.2 mi SW 10.4 mph - N/A   Partly Cloudy
8:00 PM 82.4 °F 90.9 °F 77.0 °F 84% 29.86 in 6.2 mi WSW 4.6 mph - N/A   Partly Cloudy
8:30 PM 82.4 °F 90.9 °F 77.0 °F 84% 29.86 in 6.2 mi WSW 11.5 mph - N/A   Partly Cloudy
9:00 PM 80.6 °F 87.1 °F 77.0 °F 89% 29.86 in 6.2 mi West 12.7 mph - N/A   Partly Cloudy
9:30 PM 80.6 °F 87.1 °F 77.0 °F 89% 29.86 in 6.2 mi WSW 6.9 mph - N/A   Partly Cloudy
10:00 PM 81 °F - 78 °F 86% 29.91 in 6 mi WSW 10.4 mph - -   Scattered Clouds
10:00 PM 80.6 °F 87.1 °F 77.0 °F 89% 29.86 in 6.2 mi WSW 10.4 mph - N/A   Partly Cloudy
10:30 PM 80.6 °F 87.1 °F 77.0 °F 89% 29.89 in 6.2 mi WSW 10.4 mph - N/A   Partly Cloudy
11:00 PM 80.6 °F 87.1 °F 77.0 °F 89% 29.89 in 6.2 mi WSW 11.5 mph - N/A   Partly Cloudy
11:30 PM 80.6 °F 87.1 °F 77.0 °F 89% 29.89 in 6.2 mi SW 6.9 mph - N/A   Partly Cloudy